THOR ABLESTAR DEB, 3932

Orbit data source: Space-Track

THOR ABLESTAR DEB, 3932 is space debris in LEO originally from a launch on Thu, 29 Jun 1961 UTC launched from the Air Force Eastern Test Range (AFETR). Debris objects in space refer to the collection of defunct objects orbiting the Earth. Examples of debris include non-operational satellites, rocket bodies, and fragments generated from explosions, collisions, or faulty payload assembly.

Loading next visibility...
Identifier
3932, 1961-015JG
Orbit
LEO
Country
Flag of USUS
Related business
Manufacturer
Unknown
Mission
Spacecraft
Bus & Motor
Unknown
Mass
Unknown
Launch date (UTC)
1961-06-29 (65 years ago)
Launch vehicle
Unknown
Launch site
Air Force Eastern Test Range (AFETR)
Object type
Payload
Rocket body
Debris
Shape & HBR
Unknown shape, 0.1 m
Radar Cross Section
Small (<0.1 m²)

Expand to show TLE details & history
Last TLE update: 23 hours ago

TLE from 23 hours ago
0 THOR ABLESTAR DEB
1 03932U 61015JG  26127.60995168  .00000269  00000-0  62852-3 0  9995
2 03932  65.7970 160.5064 0276675 134.3542   7.1083 13.25967548146426
Epoch: 2026-05-07T14:38Z
TLE epoch observation values (Epoch: 2026-05-07T14:38:19.825Z)
Latitude
34.36075°
Longitude
-122.33029°
Altitude
958.654 km
Speed
7.476 km/s
True Right ascension
21h 30m 49s
True Declination
34° 12' 18"
Sunlit
Object was in daylight at epoch
Visualization orbit readout
Latitude
Unknown
Longitude
Unknown
Altitude
Unknown
Speed
Unknown
Apparent Right ascension
Unknown
Apparent Declination
Unknown
Sunlit
N/A
Visualization observer readout
Local Sidereal Time
21:57:55
Azimuth
Unknown
Elevation
Unknown
Doppler factor
Unknown
Orbital elements
Apogee altitude
1,369.144 km
Perigee altitude
951.99 km
Semi-major axis
7,538.704 km
Eccentricity
0.02767
Inclination
65.797°
RAAN
160.5064°
Arg. of periapsis
134.3542°
True anomaly
7.51455°
Mean anomaly
7.1083°
Eccentric anomaly
7.31°
Mean motion
3.31587 °/min
Orbital period
108.57 mins
BSTAR
0.00062852
Loading maneuver chart data...
Computing Atmospheric mass density...
Loading historical data...
Loading historical data...
Loading historical data...
Loading historical data...
Loading historical data...
Loading historical data...
Loading historical data...

Documentation

Showing up to 5 results
|